FW7271 Weather Reports


time (UTC)temp
C
wind
direction
speed
KPH
gust
KPH
rain 1hr
cm
rain 24hr
cm
rain mn
cm
humidity
%
barometer
mb
20260906090056 20 43 1.6 6.4 0.00 0.00 0.00 88 1015.5
20260906084512 20 20 1.6 9.7 0.00 0.00 0.00 88 1015.5
20260906083102 20 37 1.6 6.4 0.00 0.00 0.00 88 1015.5
20260906081514 21 351 1.6 6.4 0.00 0.00 0.00 89 1015.4
20260906080045 21 40 1.6 4.8 0.00 0.00 0.00 88 1015.4
20260906074608 21 30 1.6 6.4 0.00 0.00 0.00 88 1015.3
20260906073022 21 30 3.2 9.7 0.00 0.00 0.00 88 1015.2
20260906071608 21 24 3.2 12.9 0.00 0.00 0.00 88 1015.1
20260906070002 22 38 0.0 8.0 0.00 0.00 0.00 89 1015.1
20260906064545 22 10 1.6 8.0 0.00 0.00 0.00 89 1015.1
20260906063002 22 47 0.0 4.8 0.00 0.00 0.00 90 1015.1
20260906061549 22 31 0.0 3.2 0.00 0.00 0.00 90 1014.9
20260906060134 22 82 0.0 9.7 0.00 0.00 0.00 90 1014.9
20260906054513 22 23 3.2 9.7 0.00 0.00 0.00 90 1014.7
20260906053057 22 68 1.6 8.0 0.00 0.00 0.00 90 1014.7
20260906051516 22 59 1.6 6.4 0.00 0.00 0.00 89 1014.6
20260906050038 23 203 0.0 4.8 0.00 0.00 0.00 89 1014.5
20260906044610 23 22 0.0 4.8 0.00 0.00 0.00 89 1014.4
20260906043038 23 2 0.0 4.8 0.00 0.00 0.00 89 1014.2
20260906041609 22 23 0.0 4.8 0.00 0.00 0.00 89 1014.3
20260906040005 22 358 3.2 9.7 0.00 0.00 0.00 88 1014.3
20260906034559 22 5 1.6 9.7 0.00 0.00 0.00 88 1014.4
20260906033002 23 43 1.6 11.3 0.00 0.00 0.00 87 1014.4
20260906031547 23 18 6.4 17.7 0.00 0.00 0.00 86 1014.3
20260906030059 23 1 4.8 16.1 0.00 0.00 0.00 86 1014.2
20260906024513 23 32 6.4 20.9 0.00 0.00 0.00 86 1014.1
20260906023056 23 9 14.5 20.9 0.00 0.00 0.00 85 1013.9
20260906021511 23 330 11.3 19.3 0.00 0.00 0.00 84 1013.6
20260906020036 24 337 11.3 22.5 0.00 0.00 0.00 84 1013.5
20260906014609 25 357 11.3 19.3 0.00 0.00 0.00 82 1013.4
20260906013021 25 3 9.7 24.1 0.00 0.00 0.00 82 1013.2
20260906011607 25 1 9.7 27.4 0.00 0.00 0.00 81 1013.2
20260906010002 26 350 9.7 22.5 0.00 0.00 0.00 80 1012.6
20260906004556 26 339 9.7 19.3 0.00 0.00 0.00 78 1012.4
20260906003113 27 351 12.9 24.1 0.00 0.00 0.00 76 1012.5
20260906001556 27 309 12.9 20.9 0.00 0.00 0.00 75 1012.5
20260906000053 28 349 11.3 22.5 0.00 0.00 0.00 74 1012.4
20260905234508 28 346 11.3 22.5 0.00 0.00 0.00 73 1012.2
20260905233052 29 12 11.3 24.1 0.00 0.00 0.00 72 1012.0
20260905231511 30 27 8.0 25.7 0.00 0.00 0.00 70 1011.9
20260905230022 30 334 12.9 32.2 0.00 0.00 0.00 70 1012.0
20260905224601 30 334 9.7 22.5 0.00 0.00 0.00 69 1011.6
20260905223030 31 309 9.7 25.7 0.00 0.00 0.00 69 1011.3
20260905221602 31 336 11.3 29.0 0.00 0.00 0.00 69 1011.0
20260905220112 32 344 11.3 22.5 0.00 0.00 0.00 69 1011.0
20260905214527 32 353 8.0 24.1 0.00 0.00 0.00 69 1010.9
20260905213109 32 354 8.0 22.5 0.00 0.00 0.00 69 1010.7
20260905211525 33 5 6.4 22.5 0.00 0.00 0.00 68 1010.6
20260905210106 33 356 9.7 24.1 0.00 0.00 0.00 67 1010.4
20260905204505 33 274 8.0 16.1 0.00 0.00 0.00 65 1010.6
20260905203047 33 264 6.4 16.1 0.00 0.00 0.00 64 1010.6
20260905201502 33 322 4.8 11.3 0.00 0.00 0.00 65 1010.6
20260905200013 32 320 4.8 11.3 0.00 0.00 0.00 67 1010.7
20260905194557 33 213 4.8 12.9 0.00 0.00 0.00 66 1010.8
20260905193018 33 293 4.8 14.5 0.00 0.00 0.00 67 1011.1
20260905191556 33 311 4.8 16.1 0.00 0.00 0.00 67 1011.4
20260905190109 33 192 6.4 12.9 0.00 0.00 0.00 67 1011.2
20260905184547 33 310 4.8 12.9 0.00 0.00 0.00 65 1011.6
20260905183108 33 226 3.2 9.7 0.00 0.00 0.00 66 1011.7
20260905181544 33 255 3.2 8.0 0.00 0.00 0.00 66 1012.1
20260905180050 33 180 3.2 14.5 0.00 0.00 0.00 66 1012.6
20260905174505 33 213 6.4 14.5 0.00 0.00 0.00 66 1012.7
20260905173053 32 181 1.6 14.5 0.00 0.00 0.00 67 1012.8
20260905171504 32 212 4.8 14.5 0.00 0.00 0.00 66 1013.1
20260905170029 32 196 3.2 11.3 0.00 0.00 0.00 67 1013.1
20260905164600 31 244 3.2 11.3 0.00 0.00 0.00 67 1013.3
20260905163028 31 215 4.8 12.9 0.00 0.00 0.00 68 1013.2
20260905161559 31 114 3.2 12.9 0.00 0.00 0.00 67 1013.3
20260905160111 30 222 4.8 16.1 0.00 0.00 0.00 69 1013.1
20260905154529 30 185 6.4 14.5 0.00 0.00 0.00 70 1013.2
20260905153110 30 236 3.2 14.5 0.00 0.00 0.00 70 1013.4
20260905151537 29 259 3.2 12.9 0.00 0.00 0.00 72 1013.0
20260905150051 28 154 4.8 19.3 0.00 0.00 0.00 73 1013.3
20260905144507 28 132 4.8 17.7 0.00 0.00 0.00 73 1013.6
20260905143047 27 149 3.2 11.3 0.00 0.00 0.00 77 1013.6
20260905141504 27 193 4.8 17.7 0.00 0.00 0.00 77 1013.1
20260905140016 27 157 0.0 6.4 0.00 0.00 0.00 81 1013.0
20260905134559 26 134 3.2 12.9 0.00 0.00 0.00 81 1012.9
20260905133014 26 93 0.0 12.9 0.00 0.00 0.00 82 1013.1
20260905131604 26 162 1.6 11.3 0.00 0.00 0.00 83 1013.2
20260905130109 25 141 3.2 12.9 0.00 0.00 0.00 84 1013.2
20260905124524 25 161 1.6 11.3 0.00 0.00 0.00 85 1013.3
20260905123113 25 176 1.6 9.7 0.00 0.00 0.00 89 1013.1
20260905121519 25 107 0.0 12.9 0.00 0.00 0.00 92 1012.8
20260905120045 24 212 0.0 0.0 0.00 0.00 0.00 93 1012.5
20260905114616 23 211 0.0 0.0 0.00 0.00 0.00 93 1012.4
20260905113029 23 211 0.0 0.0 0.00 0.00 0.00 93 1012.6
20260905111609 23 212 0.0 0.0 0.00 0.00 0.00 93 1012.3
20260905110007 23 212 0.0 0.0 0.00 0.00 0.00 93 1012.2
20260905104551 23 213 0.0 1.6 0.00 0.00 0.00 92 1012.2
20260905103003 24 211 0.0 1.6 0.00 0.00 0.00 92 1012.1
20260905101546 24 212 0.0 1.6 0.00 0.00 0.00 91 1012.1
20260905100108 24 211 0.0 1.6 0.00 0.00 0.00 91 1012.3
20260905094517 24 212 0.0 1.6 0.00 0.00 0.00 91 1012.5
20260905093058 24 211 0.0 0.0 0.00 0.00 0.00 91 1012.4
20260905091511 25 212 0.0 0.0 0.00 0.00 0.00 90 1012.2